{"data":{"norad_id":63176,"intl_designator":"2025-046T","name":"QIANFAN-90","alt_names":[],"object_type":"PAYLOAD","status":"ACTIVE","operator":null,"country":"PRC","launch_date":"2025-03-11","launch_site_code":"WSC","launch_vehicle":null,"mission":null,"orbit_class":"UNKNOWN","rcs_meters":null,"size_class":null,"mass_kg":null,"dimensions":null,"purposes":[],"wikipedia_slug":null,"has_3d_model":false,"image_url":null,"decayed_at":null,"tle_current":{"epoch":"2026-09-22T20:42:41.660352Z","epoch_age_seconds":106656,"freshness":"FRESH","line1":"1 63176U 25046T   26265.86298218  .00000023  00000+0  16482-4 0  9994","line2":"2 63176  88.9642 290.5112 0014329  31.2608 328.9392 13.51019920 85786","mean_motion":13.5101992,"eccentricity":0.0014329,"inclination_deg":88.9642,"raan_deg":290.5112,"arg_perigee_deg":31.2608,"mean_anomaly_deg":328.9392,"bstar":1.6482e-5,"rev_number":8578,"period_min":106.58614123173,"perigee_km":1057.8380885452,"apogee_km":1079.1786848945,"semimajor_km":7446.6453867198,"source":"CELESTRAK","updated_at":"2026-09-23T09:00:21.883439Z"}}}